Location: Elveden
(52.3833°N, 0.6833°E)
Time: 22:10:11
(UTC+00:00)

Daily predictions for brighter satellites

Satellite Brightness Start Highest point End
(mag) Time Altitude Azimuth Time Altitude Azimuth Time Altitude Azimuth
Cosmos 1892 Rocket 4.4 16:14:28 10° NNW 16:18:50 55° W 16:23:10 10° S
BlueWalker 3 4.2 16:18:34 10° W 16:21:39 27° SW 16:24:46 10° SSE
Cosmos 1315 Rocket 2.7 16:18:52 10° S 16:22:42 81° E 16:26:33 10° NNE
ATLAS CENTAUR R/B 1.6 16:21:00 10° NW 16:24:11 53° SW 16:27:15 10° SSE
H-2A R/B 4.5 16:23:26 10° NNW 16:26:12 20° WNW 16:28:54 10° WSW
Cosmos 2219 4.3 16:22:27 10° NNW 16:27:06 25° NE 16:31:46 10° E
Thor Agena Rocket 3.7 16:23:28 10° SE 16:28:28 50° ENE 16:33:26 10° N
CENTAUR R/B 2.8 16:22:54 10° SW 16:28:46 72° NW 16:36:17 10° NE
USA 290 2.2 16:28:32 10° NNW 16:31:48 67° ENE 16:35:02 10° SE
Cosmos 1484 Rocket 2.4 16:29:29 10° SSE 16:32:57 68° ENE 16:36:27 10° N
SL-16 R/B 2.7 16:26:51 10° NNE 16:33:00 56° ESE 16:39:04 10° S
Cosmos 1544 Rocket 3.9 16:29:10 10° SSE 16:33:23 47° E 16:37:40 10° NNE
Cosmos 1844 Rocket 4.3 16:30:28 10° NNW 16:33:45 15° NNE 16:37:03 10° ENE
Lacrosse 5 rocket 1.3 16:30:21 10° WSW 16:34:04 61° NNW 16:37:41 10° ENE
Cosmos 1980 Rocket 4.0 16:34:00 10° ESE 16:35:40 11° E 16:37:19 10° ENE
Iridium 51 3.7 16:35:41 10° S 16:38:49 86° E 16:42:03 10° N
BREEZE M DEB (TANK) 4.3 16:38:18 10° S 16:39:17 12° SSE 16:40:10 10° SE
Lacrosse 4 Rocket 2.4 16:35:34 10° WSW 16:39:22 38° NW 16:43:09 10° NNE
Meteor 1-27 4.4 16:35:57 10° SSW 16:41:46 84° WNW 16:47:33 10° NNE
Cosmos 2263 Rocket 2.8 16:37:16 10° NNW 16:42:28 35° NE 16:47:40 10° ESE
CORIOLIS 4.2 16:37:28 10° SE 16:42:40 57° ENE 16:47:55 10° N
Cosmos 2228 3.1 16:39:56 10° SSW 16:44:10 82° W 16:48:27 10° N
Cosmos 1777 Rocket 4.5 16:39:36 10° S 16:44:30 42° ESE 16:49:25 10° NE
CZ-2D R/B 3.5 16:46:29 10° SE 16:49:16 29° ENE 16:52:03 10° N
Okean 1-7 Rocket 3.8 16:45:46 10° N 16:50:00 44° ENE 16:54:11 10° SE
Cosmos 1455 Rocket 4.4 16:47:22 10° SW 16:51:27 40° WNW 16:55:37 10° N
Cosmos 1602 Rocket 3.5 16:47:36 10° N 16:52:00 64° ENE 16:56:19 10° SSE
IRIDIUM 114 4.5 16:46:53 10° N 16:52:01 52° E 16:57:06 10° SSE
Cosmos 1461 3.4 16:52:03 10° S 16:55:39 37° ESE 16:58:30 15° ENE
Cosmos 1943 Rocket 4.3 16:55:26 10° NNW 16:57:18 12° N 16:59:08 10° N
Cosmos 1933 4.1 16:54:57 10° SSE 16:58:16 29° E 17:01:21 11° NNE
Cosmos 2227 Rocket 2.2 16:53:33 10° NNW 16:59:11 64° NE 17:04:47 10° SE
USA 215 3.5 16:53:50 12° ENE 16:59:54 62° N 17:06:21 10° W
Cosmos 1634 Rocket 4.3 16:54:29 10° SSW 17:00:39 71° WNW 17:06:51 10° N
IRS-1C 4.1 16:55:27 10° SE 17:00:40 59° ENE 17:05:54 10° N
IRIDIUM 103 4.3 16:56:01 10° N 17:01:13 62° E 17:06:23 10° SSE
YAOGAN 1 3.8 16:58:25 10° ESE 17:01:33 20° ENE 17:04:42 10° NNE
Cosmos 1743 2.3 16:59:19 10° NNW 17:02:36 80° WSW 17:05:49 10° S
NOSS 7 (H) 4.0 16:59:56 10° NW 17:02:51 85° SW 17:05:57 10° SE
Cosmos 2369 Rocket 3.9 16:59:33 10° W 17:04:05 24° NW 17:08:41 10° NNE
Cosmos 1486 Rocket 4.0 16:58:58 10° SSW 17:04:09 73° ESE 17:09:25 10° NNE
SJ-12 3.9 17:01:44 10° SE 17:05:23 49° ENE 17:09:04 10° N
Cosmos 2151 2.8 17:01:56 10° N 17:06:08 84° E 17:10:18 10° SSE
Cosmos 2360 4.2 17:02:34 10° SSW 17:08:16 75° ESE 17:13:47 11° NE
Cosmos 1655 Rocket 4.2 17:05:49 10° N 17:11:51 47° ENE 17:17:49 10° SE
Cosmos 2279 Rocket 4.1 17:06:00 10° SSW 17:12:14 81° WNW 17:18:31 10° N
Cosmos 1867 3.8 17:08:36 10° NW 17:14:05 75° SW 17:19:30 10° SSE
IGS 5A 4.1 17:10:34 10° S 17:14:27 55° W 17:18:22 10° NNW
Cosmos 1697 Rocket 3.1 17:09:50 10° S 17:15:07 44° ESE 17:19:15 16° NE
Cosmos 990 Rocket 4.5 17:10:52 10° S 17:15:35 39° ESE 17:19:09 17° NE
Cosmos 1953 Rocket 4.1 17:11:35 10° N 17:15:44 37° ENE 17:19:52 10° SE
Cosmos 2278 Rocket 4.3 17:15:00 10° NNW 17:16:58 12° N 17:18:57 10° NNE
MOS 1 Rocket 3.5 17:13:18 10° SSE 17:18:11 61° ENE 17:23:22 10° N
SAR-Lupe-4 3.4 17:15:14 10° SSE 17:18:46 73° ENE 17:22:20 10° NNW
IRIDIUM 106 4.3 17:14:19 10° N 17:19:34 85° E 17:24:48 10° S
NOSS 2-2 (D) 3.2 17:20:30 10° WSW 17:23:36 52° NW 17:25:11 24° NNE
Cosmos 1782 3.4 17:20:40 10° SSW 17:24:10 50° WNW 17:27:41 10° N
Cosmos 1825 Rocket 3.4 17:20:50 10° N 17:25:11 70° ENE 17:29:30 10° SSE
ARIANE 5 R/B 2.5 17:20:29 10° SSE 17:25:34 89° ENE 17:30:46 10° NNW
Resurs 01 Rocket 3.7 17:29:46 12° NNE 17:29:46 12° NNE 17:30:19 10° NNE
SAR-Lupe-1 4.0 17:26:02 10° SSE 17:29:39 83° ENE 17:33:17 10° NNW
Cosmos 1680 Rocket 4.5 17:26:18 10° N 17:30:40 26° NE 17:31:45 24° ENE
Cosmos 2098 Rocket 3.7 17:28:08 10° SSW 17:32:24 61° WNW 17:37:27 10° N
USA 81 4.4 17:27:51 10° N 17:32:52 42° ENE 17:37:51 10° SSE
Cosmos 1656 4.1 17:27:51 10° SW 17:33:27 62° NW 17:38:38 13° NNE
UNK 3.7 17:29:18 10° NNE 17:33:55 90° WSW 17:38:29 10° SSW
CZ-2D R/B 3.7 17:32:53 10° SE 17:36:52 44° ENE 17:40:49 10° N
NOSS 3-2 (A) 3.6 17:32:43 10° WSW 17:37:56 59° NW 17:42:25 19° NE
Gbstr 26 Del rocket 3.7 17:34:44 10° SW 17:38:25 34° SSE 17:39:37 27° ESE
NOSS 3-2 (C) 3.1 17:34:13 10° SW 17:39:21 80° SE 17:43:16 23° NE
IRAS Rocket 4.5 17:34:25 10° SE 17:39:35 44° ENE 17:44:45 10° N
SPOT 1/Viking Rocket 3.5 17:37:26 10° SSE 17:42:35 65° ENE 17:47:45 10° N
Cosmos 1076 Rocket 3.4 17:38:57 10° N 17:43:16 70° ENE 17:47:34 10° SSE
NOSS 2-2 (E) 3.5 17:41:03 10° WSW 17:44:05 42° NW 17:45:00 31° N
PSLV R/B 3.8 17:43:07 28° ESE 17:44:33 38° ENE 17:48:20 10° N
SMAP 4.0 17:40:11 10° S 17:44:42 49° W 17:49:15 10° NNW
[s.n.66845] 3.3 17:42:31 10° NNW 17:43:44 22° N 17:43:44 22° N
[s.n.66847] 3.3 17:42:58 10° NNW 17:44:11 22° N 17:44:11 22° N
Cosmos 2266 Rocket 4.4 17:39:41 10° NNW 17:45:47 64° W 17:51:44 10° S
[s.n.66846] 3.3 17:43:23 10° NNW 17:44:36 22° N 17:44:36 22° N
Cosmos 2082 3.8 17:40:50 10° NNW 17:46:25 51° NE 17:50:41 17° ESE
CZ-4C R/B 3.8 17:39:47 10° NW 17:46:30 53° SW 17:54:44 10° SSE
[s.n.66843] 3.3 17:43:56 10° NNW 17:45:08 22° N 17:45:08 22° N
[s.n.66844] 3.4 17:44:23 10° NNW 17:45:34 22° NNW 17:45:34 22° NNW
SJ-7 4.5 17:47:21 42° ENE 17:47:32 43° ENE 17:51:07 10° N
[s.n.66842] 3.4 17:44:55 10° NNW 17:46:06 22° NNW 17:46:06 22° NNW
COSMO-SKYMED 1 3.7 17:49:12 24° SE 17:49:12 24° SE 17:51:34 10° SSE
[s.n.66841] 3.4 17:45:22 10° NNW 17:46:33 22° NNW 17:46:33 22° NNW
SL-19 R/B 4.3 17:43:03 10° SE 17:48:18 52° ENE 17:53:52 10° N
[s.n.66840] 3.4 17:45:53 10° NNW 17:47:03 22° NNW 17:47:03 22° NNW
[s.n.66838] 3.4 17:46:21 10° NNW 17:47:31 21° NNW 17:47:31 21° NNW
Landsat 7 4.4 17:44:54 10° S 17:49:28 57° W 17:54:05 10° NNW
[s.n.66839] 3.4 17:46:51 10° NNW 17:48:01 22° NNW 17:48:01 22° NNW
[s.n.66837] 3.4 17:47:19 10° NNW 17:48:28 22° NNW 17:48:28 22° NNW
IRS-P3 4.2 17:44:50 10° SSE 17:50:09 82° WSW 17:55:31 10° NNW
SJ-6F 4.4 17:46:18 10° S 17:50:17 78° WSW 17:54:21 10° NNW
[s.n.66836] 3.4 17:47:49 10° NNW 17:48:58 21° NNW 17:48:58 21° NNW
Cosmos 2058 Rocket 3.6 17:46:30 10° SSE 17:50:37 37° E 17:50:45 37° E
[s.n.66835] 3.4 17:48:20 10° NNW 17:49:28 21° NNW 17:49:28 21° NNW
Cosmos 2297 Rocket 4.2 17:46:34 10° NW 17:51:27 30° WSW 17:56:18 10° SSW
[s.n.66834] 3.4 17:48:49 10° NNW 17:49:57 21° NNW 17:49:57 21° NNW
[s.n.66833] 3.4 17:49:15 10° NNW 17:50:24 21° NNW 17:50:24 21° NNW
[s.n.66832] 3.5 17:49:47 10° NNW 17:50:55 21° NNW 17:50:55 21° NNW
[s.n.66831] 3.5 17:50:13 10° NNW 17:51:20 21° NNW 17:51:20 21° NNW
[s.n.66830] 3.5 17:50:39 10° NNW 17:51:46 21° NNW 17:51:46 21° NNW
[s.n.66828] 3.5 17:51:05 10° NNW 17:52:12 21° NNW 17:52:12 21° NNW
[s.n.66829] 3.5 17:51:37 10° NNW 17:52:44 21° NNW 17:52:44 21° NNW
[s.n.66827] 3.5 17:52:09 10° NNW 17:53:15 21° NNW 17:53:15 21° NNW
[s.n.66826] 3.5 17:52:39 10° NNW 17:53:45 21° NNW 17:53:45 21° NNW
[s.n.66825] 3.5 17:53:06 10° NNW 17:54:11 21° NNW 17:54:11 21° NNW
[s.n.66824] 3.6 17:53:37 10° NNW 17:54:42 21° NNW 17:54:42 21° NNW
[s.n.66823] 3.6 17:54:08 10° NNW 17:55:13 21° NNW 17:55:13 21° NNW
[s.n.66822] 3.6 17:54:38 10° NNW 17:55:41 20° NNW 17:55:41 20° NNW
[s.n.66821] 3.6 17:55:06 10° NNW 17:56:09 20° NNW 17:56:09 20° NNW
Cosmos 1538 Rocket 4.0 17:53:35 10° NNW 17:58:54 89° ENE 18:04:14 10° SSE
Nadezhda 2 Rocket 4.5 17:54:55 10° N 18:00:56 53° ENE 18:06:53 10° SSE
Cosmos 1606 Rocket 3.8 17:57:16 10° SSW 18:01:40 72° WNW 18:05:40 13° N
Meteor 1-26 Rocket 4.3 17:59:23 10° SSE 18:04:29 45° E 18:05:35 39° ENE
Lacrosse 5 rocket 1.9 18:07:59 10° WNW 18:11:16 38° N 18:11:16 38° N
Cosmos 1553 Rocket 4.1 18:06:05 10° SSE 18:11:56 47° E 18:14:51 28° NE
Cosmos 2219 3.1 18:06:18 10° NNW 18:12:05 85° ENE 18:17:51 10° SSE
GEOS 3 Rocket 3.8 18:09:53 32° NE 18:12:27 76° NW 18:17:48 10° SW
BREEZE-M DEB (TANK) 3.4 18:11:17 10° SW 18:12:05 21° SSW 18:12:05 21° SSW
Resurs 1-3 3.4 18:09:04 10° SSE 18:13:22 80° ENE 18:17:42 10° NNW
SL-16 R/B 3.9 18:10:46 10° N 18:16:21 36° WNW 18:21:52 10° WSW
Lacrosse 4 Rocket 3.8 18:16:31 10° NW 18:18:17 12° NNW 18:19:18 12° N
Cosmos 1980 Rocket 2.2 18:12:56 10° SSW 18:18:30 61° ESE 18:19:44 49° ENE
Cosmos 1844 Rocket 3.2 18:13:56 10° NNW 18:18:59 40° NE 18:18:59 40° NE
Cosmos 1354 Rocket 4.4 18:14:37 10° SW 18:19:50 63° WNW 18:22:53 25° NNE
CENTAUR R/B 3.7 18:14:30 10° W 18:20:35 38° N 18:24:02 26° NE
USA 281 4.2 18:22:44 27° NNE 18:22:44 27° NNE 18:27:40 10° NNW
Meteor 2-20 4.4 18:16:11 10° S 18:22:22 89° WNW 18:28:33 10° N
NOSS 2-3 (C) 3.9 18:21:30 10° SSW 18:23:55 41° SSW 18:23:55 41° SSW
Spot 4 Rocket 4.1 18:20:06 10° SSE 18:25:13 79° WSW 18:30:22 10° NNW
Cosmos 1745 Rocket 4.2 18:19:18 10° N 18:24:48 45° ENE 18:24:48 45° ENE
Cosmos 1726 Rocket 4.2 18:21:02 10° SSW 18:25:37 58° WNW 18:28:51 19° N
Cosmos 2263 Rocket 2.8 18:21:08 10° NW 18:26:41 57° WSW 18:32:14 10° S
Cosmos 1898 Rocket 3.6 18:25:38 10° S 18:30:12 56° SE 18:30:12 56° SE
Cosmos 1244 Rocket 4.4 18:24:40 10° N 18:31:00 89° W 18:37:14 10° S
Cosmos 2369 4.1 18:26:05 10° S 18:30:42 43° SE 18:30:42 43° SE
Cosmos 2112 Rocket 4.4 18:26:40 10° NNW 18:30:45 45° NNE 18:30:45 45° NNE
Cosmos 1461 3.8 18:28:44 10° WSW 18:32:25 38° NW 18:32:37 38° NNW
Cosmos 44 Rocket 3.8 18:27:48 10° NW 18:32:08 46° NNE 18:32:08 46° NNE
SKYMED 2 3.8 18:36:02 55° NNW 18:36:49 70° WNW 18:41:07 10° SSW
YAOGAN 1 3.0 18:32:50 10° S 18:37:02 60° WSW 18:41:16 10° NNW
Meteor 1-17 Rocket 4.5 18:31:52 10° NNW 18:37:29 79° ENE 18:40:26 29° SSE
Cosmos-2242 3.5 18:33:22 10° S 18:36:35 51° SSW 18:36:35 51° SSW
USA 238 DEB 3.4 18:33:56 10° SSW 18:40:04 72° SE 18:41:14 59° ENE
USA 238 3.4 18:34:03 10° SSW 18:40:10 72° SE 18:41:19 59° ENE
Cosmos 923 Rocket 3.8 18:35:33 10° NNW 18:40:47 90° NE 18:41:32 66° SSE
USA 215 3.2 18:41:10 54° ENE 18:42:35 68° NNE 18:49:06 10° WNW
Cosmos 2227 Rocket 4.2 18:38:08 10° NW 18:42:50 28° WSW 18:47:30 10° SSW
Cosmos 372 Rocket 3.8 18:37:59 10° SSW 18:43:08 86° ESE 18:43:10 86° E
Cosmos 1943 Rocket 4.3 18:40:58 10° N 18:42:28 13° N 18:42:28 13° N
Meteor 2-20 Rocket 4.4 18:37:51 10° S 18:44:06 86° WNW 18:48:13 22° N
SL-08 R/B 4.5 18:39:19 10° NNW 18:45:41 84° W 18:52:01 10° S
Cosmos 1937 Rocket 4.4 18:44:21 10° S 18:47:30 36° S 18:47:30 36° S
Cosmos 2369 Rocket 4.4 18:48:05 10° NNW 18:50:21 12° N 18:51:32 12° N
Cosmos 1386 Rocket 4.3 18:44:48 10° N 18:50:55 82° E 18:57:06 10° SSE
BREEZE-M DEB (TANK) 4.4 18:46:48 10° W 18:50:59 82° SSW 18:54:54 41° ESE
Cosmos 1697 Rocket 3.7 18:53:48 10° WSW 18:59:07 43° NW 19:00:59 32° N
Aureole 1 Rocket 3.7 18:55:07 10° SW 18:59:46 68° WNW 19:00:03 66° NW
Resurs 01 Rocket 4.1 19:07:10 13° NNW 19:07:10 13° NNW 19:07:40 10° NNW
Cosmos 2278 Rocket 4.3 19:00:19 10° NNW 19:01:48 14° N 19:01:48 14° N
Cosmos 1680 Rocket 4.1 19:07:58 10° NNW 19:12:02 52° NW 19:12:02 52° NW
COSMOS 2455 4.4 19:10:36 10° SSW 19:12:49 23° S 19:12:49 23° S
NOSS 3-2 (C) 4.3 19:25:35 10° W 19:30:40 39° NNW 19:30:40 39° NNW
Cosmos 1980 Rocket 3.8 19:57:43 10° WSW 20:01:30 30° WNW 20:01:30 30° WNW
Cosmos 1844 Rocket 4.4 19:57:51 10° NW 20:00:39 28° NW 20:00:39 28° NW
CENTAUR R/B 4.0 20:06:15 10° NW 20:11:08 35° NNW 20:11:08 35° NNW
USA 215 4.5 20:28:32 36° WNW 20:28:32 36° WNW 20:32:13 10° WNW
